GFSNW_prec_cthk_231.txt.gz
RH
36 38 42 51 56 58 60 62 60 54 48 50 49 49 49 48 50 49 50 51 51 52 53 51 51 53 53 55 56 55 55 54 53 50 51 53 55 56 58 68 66 67 72 52
37 40 44 52 63 65 68 70 62 58 58 59 55 56 55 53 55 55 55 56 59 58 57 58 57 58 61 60 60 61 62 57 58 51 59 59 61 63 63 65 68 63 62 52
40 45 52 57 68 71 76 71 68 65 63 64 62 61 61 61 66 63 62 64 64 63 65 65 62 59 63 64 66 68 69 63 61 58 58 60 60 64 67 68 70 60 55 52
43 54 60 71 75 76 81 79 72 70 69 64 68 66 65 63 65 67 69 69 71 69 67 65 63 64 66 66 72 71 68 64 63 61 62 68 63 66 67 66 62 66 54 52
54 65 74 84 81 81 82 85 81 74 71 73 74 71 69 70 67 68 71 76 75 72 70 67 69 66 69 68 70 73 74 69 68 65 64 62 62 55 55 56 55 54 52 49
62 69 76 87 88 87 85 85 87 84 81 78 76 73 75 73 74 77 78 80 79 80 78 74 71 70 70 74 72 71 71 72 74 70 69 64 57 58 51 48 48 49 50 54
81 77 91 91 91 90 88 89 91 90 87 83 81 77 77 80 82 83 84 85 87 85 79 79 75 72 72 71 73 75 74 80 80 78 69 67 71 56 56 56 61 62 62 58
94 88 90 94 94 94 91 94 92 92 90 89 86 88 86 86 88 92 92 89 91 88 85 76 70 61 63 67 72 77 80 81 84 83 75 63 66 59 59 57 65 64 59 54
98 97 96 96 97 95 95 96 98 95 92 91 93 93 93 95 96 96 95 91 87 85 77 78 78 74 69 78 73 78 78 80 80 79 93 69 69 63 59 64 66 62 59 51
98 99 98 97 98 98 99 98 99 98 98 96 95 96 95 97 98 97 92 90 85 78 76 77 77 73 67 72 64 75 82 85 80 83 91 72 71 67 68 70 64 58 49 39
95 96 99 97 97 98 99 98 98 99 98 97 97 98 97 98 98 98 96 91 81 74 72 72 69 67 58 63 61 68 77 79 80 87 90 82 71 66 64 63 57 50 41 41
91 88 82 87 98 96 98 98 94 98 94 95 93 95 96 98 97 93 83 77 67 66 74 77 74 72 72 68 67 70 78 75 91 83 80 77 77 72 67 59 47 45 49 48
82 83 83 79 76 76 74 81 85 81 83 84 84 83 86 84 81 77 73 69 69 71 71 72 72 73 70 72 62 64 70 76 79 78 73 73 69 58 56 51 55 59 51 47
89 84 81 83 78 76 77 75 73 73 75 75 71 70 65 60 61 64 65 62 61 64 68 72 75 73 68 65 67 71 73 68 69 78 70 60 56 59 59 61 62 56 50 47
74 78 89 82 85 79 77 76 78 78 74 69 54 49 49 48 48 52 56 60 64 66 72 74 76 73 80 74 70 65 70 72 74 65 64 59 63 67 67 64 59 52 47 44
60 67 64 68 61 54 59 62 67 57 46 50 48 46 45 44 44 47 52 61 65 68 72 71 72 78 70 67 59 69 76 76 65 62 64 70 73 70 65 63 53 49 47 48
32 40 48 48 46 47 51 49 46 49 52 52 51 46 42 43 43 48 53 55 60 62 68 67 67 68 65 64 61 68 64 65 67 71 75 75 71 66 66 57 50 48 48 52
43 45 48 50 52 54 53 48 46 47 49 48 53 48 42 42 47 50 50 54 58 61 64 67 65 68 66 64 69 70 75 80 82 82 78 72 70 68 58 54 51 48 51 58
41 45 48 53 55 55 55 56 52 49 50 54 51 49 47 46 51 54 55 59 67 66 63 65 67 66 75 76 77 84 86 85 83 75 73 76 69 59 55 53 51 53 60 65
38 50 57 61 64 58 56 49 51 55 53 48 44 43 48 51 57 60 65 70 72 73 71 75 73 72 86 84 85 87 86 81 77 81 80 70 60 56 55 53 55 61 66 70
44 44 49 55 51 51 50 46 47 48 44 43 44 47 49 58 64 71 69 74 76 78 77 81 79 84 87 89 89 84 80 81 85 78 68 61 57 53 50 53 60 68 74 75
46 48 52 50 53 53 56 55 54 50 47 43 45 49 58 63 70 73 76 82 83 85 83 86 82 87 89 87 82 84 88 81 72 65 59 56 51 48 50 52 61 73 77 81
55 55 55 60 63 64 62 60 51 48 44 49 56 62 64 69 72 77 85 89 87 83 85 85 88 88 83 82 87 82 73 69 64 58 53 47 46 48 50 52 59 76 80 86
65 66 64 63 65 59 57 50 47 51 58 64 69 68 70 75 80 83 85 87 84 81 83 83 80 82 83 80 74 70 66 61 57 54 52 45 47 52 54 54 59 73 87 90
72 68 73 65 59 56 55 50 60 74 79 74 76 77 79 79 82 83 84 83 79 77 78 80 79 78 75 70 67 64 61 58 56 53 48 46 50 56 58 57 62 71 89 93
72 71 70 73 77 84 79 79 80 80 78 75 77 82 80 79 79 76 75 77 78 82 84 81 75 70 65 62 60 59 55 53 51 46 48 50 54 60 63 61 66 73 79 92
92 93 96 94 89 86 85 84 84 81 83 81 79 78 75 70 73 75 77 81 79 73 68 65 61 58 56 54 51 47 46 47 49 52 54 56 59 62 68 66 73 72 74 82

GFSNW_prec_cthk_234.txt.gz
RH
12 16 23 33 43 40 44 53 61 55 53 52 50 52 51 50 52 52 52 53 55 56 55 58 55 57 58 60 60 59 58 58 59 55 55 58 59 60 63 80 78 85 89 79
14 16 22 30 42 48 55 62 62 59 56 59 57 56 57 56 58 57 54 57 59 58 60 64 61 59 65 63 62 67 67 63 65 60 60 61 65 68 71 76 79 84 90 75
16 18 23 28 42 56 62 70 69 64 62 62 61 62 56 60 61 60 61 63 65 66 64 64 66 64 62 67 65 65 66 66 68 68 65 71 72 73 77 80 85 80 79 73
20 26 33 43 49 60 70 76 74 70 71 67 68 69 66 64 65 64 64 68 69 69 71 70 68 67 66 66 67 67 68 69 67 63 64 66 70 72 75 79 77 85 73 73
33 37 48 53 62 68 80 84 83 76 72 72 75 73 71 69 69 67 67 72 71 74 74 78 76 75 73 67 67 65 65 70 66 61 62 62 59 62 65 65 68 67 66 66
50 56 55 56 66 79 86 88 87 84 83 80 78 76 75 75 72 73 75 76 79 81 81 80 77 75 74 68 65 66 65 66 70 72 63 61 60 70 68 62 60 64 68 71
77 73 64 74 78 90 92 91 92 89 87 86 84 81 80 77 76 76 78 80 88 86 84 83 77 69 67 61 56 54 60 65 78 79 68 69 68 64 68 71 71 75 75 71
97 92 94 90 90 93 95 95 96 93 89 89 89 87 86 87 88 88 90 92 95 91 91 80 66 59 56 54 57 58 59 66 81 84 78 66 70 64 63 67 80 77 76 70
99 98 99 99 96 98 97 96 97 96 94 92 92 92 93 93 95 96 96 96 96 96 86 74 70 70 64 65 62 58 61 63 75 78 88 79 67 65 72 71 80 75 75 65
98 98 99 99 99 98 98 97 97 97 97 93 94 95 94 95 97 97 96 96 94 87 80 76 70 67 59 63 58 67 69 72 79 81 86 69 67 70 76 82 84 74 65 62
98 98 98 98 98 98 99 97 98 98 97 94 96 94 90 93 95 94 95 93 85 81 76 71 66 69 56 53 51 61 65 76 83 80 90 86 73 74 78 82 82 74 59 51
97 97 96 94 92 98 98 98 98 97 98 98 95 95 92 90 91 91 90 84 74 71 68 68 67 63 59 58 66 60 70 68 85 84 87 83 82 82 84 81 68 57 53 60
94 92 91 90 89 89 91 90 93 93 97 93 89 85 84 86 85 80 74 70 68 64 58 62 65 65 62 66 66 60 62 68 76 79 77 68 72 78 82 67 62 63 64 60
91 94 94 94 91 89 86 85 85 87 87 88 84 88 83 77 75 74 65 58 55 55 60 63 65 65 63 64 64 61 70 69 73 70 65 68 74 73 65 65 68 69 61 59
88 89 91 92 91 90 90 96 94 94 91 81 72 71 69 70 61 54 53 52 53 60 61 63 65 65 68 68 66 67 70 70 72 70 76 70 65 67 71 73 70 63 62 51
67 76 80 83 84 83 85 85 84 82 77 70 65 55 49 50 48 49 50 56 61 60 61 63 60 64 71 69 60 61 67 69 65 63 64 66 71 77 77 71 65 64 56 50
54 59 54 58 69 71 73 69 65 65 61 65 64 58 51 49 50 52 54 55 56 58 59 58 62 64 65 65 63 65 66 66 67 71 75 78 82 79 72 69 66 55 51 50
44 51 67 66 67 68 66 63 63 61 66 66 62 57 51 52 51 49 47 50 51 53 56 60 59 61 66 66 69 69 68 72 77 83 85 85 79 72 73 67 54 50 49 49
66 50 54 70 73 72 75 72 68 68 67 61 62 65 60 48 46 48 47 50 57 55 57 57 60 64 70 73 73 72 75 83 86 87 84 79 76 76 66 54 51 50 51 55
68 64 67 67 63 72 70 73 71 69 66 65 56 49 46 45 50 53 54 54 62 66 63 64 68 69 75 79 82 85 88 89 87 82 79 80 76 65 55 51 47 49 53 59
57 66 75 80 86 88 79 77 67 58 53 50 47 43 46 55 58 60 60 69 68 72 71 75 76 77 86 87 88 90 87 83 84 87 83 73 63 52 46 43 45 48 52 63
55 61 58 63 61 65 64 62 55 49 46 41 40 48 54 55 59 64 66 72 74 80 77 82 83 89 86 88 90 88 84 88 84 77 69 62 53 48 42 43 45 48 51 65
57 56 61 61 65 63 59 54 51 47 42 44 49 53 54 58 63 66 73 81 83 81 87 87 89 84 83 84 84 85 83 78 72 67 60 54 50 45 41 44 48 49 52 66
67 67 67 61 61 55 51 48 45 46 48 50 53 56 60 66 73 79 86 89 85 87 88 86 81 77 78 78 78 78 74 68 65 59 55 51 46 41 44 48 52 52 55 64
82 75 72 62 55 56 58 55 50 53 54 56 60 65 73 76 79 82 84 85 84 79 82 77 79 82 81 76 72 67 63 60 57 52 49 47 43 44 48 52 56 58 58 62
86 74 66 64 62 60 54 54 56 64 76 74 73 75 77 78 83 80 82 82 81 82 82 83 83 78 70 65 60 57 55 53 48 46 45 46 49 51 55 55 60 62 63 66
87 75 68 64 58 64 66 67 79 81 79 79 75 79 78 74 78 79 78 81 82 80 76 71 65 59 54 50 45 43 44 46 50 53 55 58 59 59 60 62 64 67 67 72

GFSNW_prec_cthk_237.txt.gz
RH
16 13 14 18 22 22 26 33 45 52 52 52 52 54 53 52 54 53 53 53 54 54 55 57 53 55 55 57 57 60 62 61 65 53 53 57 57 62 64 79 81 92 97 86
14 13 14 17 22 24 28 39 42 54 56 60 60 58 58 56 57 57 56 59 60 58 62 63 58 59 61 61 60 63 61 60 65 56 56 59 62 66 71 78 86 93 96 89
14 13 14 17 21 28 36 47 56 55 60 62 63 67 61 63 63 61 60 62 63 65 66 63 65 63 62 64 64 66 63 63 59 59 58 65 64 65 72 81 93 93 92 92
15 15 16 18 24 34 44 55 64 68 70 69 70 72 68 65 65 65 66 67 69 70 71 70 67 64 65 66 70 66 60 64 60 57 57 60 58 59 64 68 73 90 76 85
17 18 19 22 33 42 46 62 72 76 74 72 74 75 73 72 68 69 68 69 71 73 76 71 74 72 71 68 65 63 62 63 58 51 49 52 55 57 56 58 59 61 65 67
24 23 29 33 39 50 58 71 79 85 83 80 80 79 79 74 72 73 71 72 74 79 80 75 78 78 75 70 64 64 61 58 60 58 55 53 50 53 59 63 59 66 70 74
36 37 39 41 48 60 72 82 90 92 89 88 86 86 81 78 78 76 77 78 79 83 85 83 79 77 73 66 60 56 52 55 62 66 57 60 54 57 58 59 67 75 80 81
55 57 65 66 80 85 86 92 95 96 92 92 90 88 87 87 89 88 84 80 82 87 86 81 77 73 62 59 54 53 54 56 65 70 70 54 54 57 59 67 76 78 79 78
70 70 77 83 96 96 96 94 96 97 95 91 92 91 90 90 89 87 88 87 87 88 84 80 78 78 66 65 59 53 51 54 61 76 78 72 59 61 66 72 77 72 75 79
80 86 90 96 99 99 98 97 98 97 96 94 93 92 92 91 90 89 88 89 89 87 81 75 72 70 59 61 54 57 59 63 69 77 83 67 61 65 70 84 77 75 81 81
91 94 95 98 98 98 98 98 97 98 98 97 96 95 96 95 95 92 90 90 84 81 77 74 70 66 59 54 52 56 59 71 75 78 83 78 63 71 82 84 80 77 80 71
91 95 97 98 99 99 98 98 98 98 98 98 97 98 96 94 93 90 90 86 80 77 77 71 68 67 64 61 65 52 62 60 73 75 74 73 78 81 82 74 76 72 65 70
95 94 96 97 97 97 97 98 98 98 98 98 98 98 96 94 91 94 91 85 82 75 69 65 65 65 63 64 62 56 54 62 68 72 72 73 74 75 73 73 69 66 73 73
91 91 95 98 97 96 96 96 97 97 97 97 93 92 94 90 83 78 78 73 70 70 67 66 65 65 61 61 58 55 58 63 66 66 75 74 70 72 73 69 68 74 76 71
86 89 90 93 97 97 96 96 97 98 97 97 93 87 83 81 73 66 64 67 65 63 64 69 67 62 61 60 59 58 63 65 66 68 68 68 67 68 71 75 77 78 70 64
73 76 80 87 94 93 94 96 92 92 91 89 87 76 71 63 62 65 66 65 65 66 65 64 60 58 60 62 56 52 59 62 65 67 68 67 70 76 80 83 80 70 70 65
57 58 72 75 83 90 89 82 75 76 79 80 73 70 68 65 67 69 67 67 68 68 63 58 56 58 61 60 58 60 61 62 64 66 68 73 79 86 87 80 72 71 63 53
58 65 58 57 66 73 81 85 80 79 80 75 78 76 67 65 63 59 60 63 59 53 54 55 53 53 58 59 61 64 65 67 70 76 81 85 87 87 79 76 71 57 48 43
66 56 75 69 72 71 68 64 67 68 74 79 74 67 64 63 60 60 58 56 56 54 53 52 53 55 62 63 66 72 77 80 82 85 86 86 81 79 79 69 56 47 41 42
70 70 74 79 85 88 81 78 80 79 76 70 61 64 65 62 59 55 51 53 56 60 55 54 60 58 66 73 78 84 87 88 87 83 80 81 82 76 64 57 49 42 41 42
60 67 76 73 79 89 95 90 85 83 76 75 71 68 63 59 55 57 60 64 62 62 60 67 68 70 79 81 84 86 86 86 84 83 86 79 72 62 56 48 43 41 41 44
62 66 61 66 74 81 88 87 80 74 68 63 58 54 55 60 63 65 63 62 65 68 70 76 74 81 82 82 81 82 80 81 82 79 74 70 64 56 50 43 39 42 43 45
59 64 58 67 77 75 74 71 68 62 54 46 44 49 49 56 59 61 62 68 71 76 83 82 81 81 78 77 78 77 75 75 74 72 67 63 57 53 47 40 42 44 46 48
79 87 80 72 65 58 57 54 47 41 38 43 47 51 51 55 61 65 73 80 86 85 82 81 78 74 74 78 81 80 75 70 67 65 60 56 51 46 42 43 45 47 50 51
89 95 80 69 57 56 53 47 44 44 43 46 50 53 54 64 69 78 82 85 82 80 78 75 74 77 81 82 76 68 64 60 57 54 50 46 46 47 50 51 51 53 54 55
93 97 83 67 62 54 52 50 53 55 57 55 52 62 71 78 80 77 78 78 79 78 80 79 78 79 74 65 60 54 49 45 43 45 49 53 54 56 58 58 57 59 59 62
93 97 79 62 64 68 61 60 59 59 59 63 68 77 76 80 80 80 79 78 79 82 78 76 75 67 55 46 41 40 44 47 50 54 57 60 63 66 66 65 64 65 66 68

GFSNW_prec_cthk_240.txt.gz
RH
19 17 17 18 16 17 18 21 25 31 35 45 43 50 50 52 53 50 52 53 53 53 53 54 51 52 54 55 54 56 57 58 61 50 50 51 50 58 62 77 78 91 96 77
20 18 18 17 15 17 19 24 28 33 38 53 56 54 53 56 58 57 56 57 57 55 58 59 56 56 57 56 56 56 57 58 60 52 50 48 50 54 60 69 77 83 91 80
22 20 19 16 16 18 21 27 34 37 41 53 63 59 60 60 59 60 60 61 61 62 62 62 61 59 57 57 57 57 55 59 57 57 51 51 52 51 57 64 75 78 70 68
22 21 20 16 16 18 23 32 37 42 55 61 66 67 66 64 65 65 64 64 64 65 67 65 63 61 62 63 66 63 60 62 62 54 52 51 50 47 50 58 62 73 56 66
23 22 19 18 18 20 25 33 40 45 52 66 69 72 72 71 68 70 68 68 68 66 69 71 74 69 69 71 69 67 65 64 59 55 47 50 48 45 50 52 55 59 62 65
30 26 23 21 24 27 29 36 44 49 63 71 76 79 76 75 73 73 72 74 73 72 72 74 75 75 75 78 76 73 66 63 59 58 53 53 48 44 49 57 65 67 67 74
37 33 28 26 29 32 34 39 51 64 75 82 83 83 81 81 79 78 79 79 76 77 78 79 78 78 78 76 75 69 62 58 60 64 56 59 47 48 53 58 62 70 77 79
48 44 38 41 44 50 50 53 64 74 79 86 87 86 88 87 85 87 84 81 80 78 80 82 77 74 65 65 62 57 50 52 60 68 69 54 49 51 54 60 64 70 74 78
59 50 45 52 56 63 66 69 75 83 87 87 89 90 90 92 89 88 87 85 84 84 86 80 83 82 72 71 63 55 53 52 59 70 73 71 52 53 61 63 70 72 73 79
58 60 59 63 66 70 75 80 86 91 92 91 92 92 92 93 93 91 90 87 88 87 83 82 79 75 72 71 64 59 58 62 67 65 74 63 58 62 64 77 76 76 78 72
61 64 69 72 75 82 85 89 94 97 95 95 95 95 96 96 94 94 93 93 89 88 85 80 79 79 72 63 56 58 59 68 70 71 76 74 60 66 76 79 80 78 74 70
68 67 70 74 79 88 93 94 97 99 97 96 96 97 97 96 96 96 97 95 90 85 84 82 74 73 69 64 69 57 62 55 66 67 65 65 72 75 77 79 79 76 75 66
75 74 78 79 83 88 92 96 98 99 98 98 97 96 97 97 97 97 97 95 87 81 75 73 74 74 70 72 69 59 51 57 59 65 62 64 67 72 76 72 73 71 69 73
85 88 85 87 88 93 95 96 97 97 98 98 96 97 97 97 97 96 94 91 83 74 80 81 76 72 70 70 64 57 52 55 60 60 64 67 69 66 67 70 71 74 77 83
85 87 91 92 93 95 94 94 96 97 98 97 96 92 88 90 91 87 83 82 78 79 78 76 75 74 73 69 64 58 53 56 60 62 60 61 64 68 70 72 76 81 84 75
77 72 78 90 94 94 96 98 98 98 98 96 89 82 78 79 81 78 79 80 83 81 74 73 76 71 69 65 60 47 51 55 56 60 62 64 67 69 75 83 86 84 74 73
69 66 78 81 91 94 92 92 90 93 93 92 86 83 79 75 75 82 84 83 80 77 76 76 70 64 65 63 57 54 54 55 57 60 64 68 72 79 84 87 79 73 73 63
64 66 69 76 76 86 88 90 90 92 95 94 90 86 78 78 78 79 75 75 74 72 70 68 62 60 60 57 53 54 57 59 65 70 76 79 82 87 83 78 75 70 59 50
77 77 69 72 84 88 87 78 78 83 80 82 76 69 71 72 69 68 69 71 73 68 63 57 57 59 57 53 55 59 65 71 77 78 80 82 82 82 79 78 66 58 50 41
64 73 86 88 84 78 86 93 96 94 82 79 69 74 77 69 71 79 77 71 68 65 60 60 59 52 52 58 64 69 74 78 78 78 79 78 81 78 70 67 61 52 42 36
68 72 73 79 85 92 92 98 94 92 89 85 80 78 81 87 84 78 73 72 70 67 61 60 58 56 63 69 74 77 78 78 77 77 77 77 72 67 65 62 54 45 39 37
54 66 71 78 82 76 90 92 88 82 80 73 75 80 84 80 73 72 74 72 72 65 62 65 62 66 74 77 77 75 73 73 72 73 74 71 67 62 58 54 46 39 39 40
65 78 82 73 85 85 74 72 70 63 59 59 66 71 67 70 69 71 69 67 63 62 68 69 70 75 75 74 69 71 75 76 77 75 71 64 59 53 48 43 41 43 44 45
67 70 87 87 81 65 57 52 48 48 52 54 55 57 55 59 62 60 58 64 68 72 75 75 74 75 69 70 74 79 79 74 68 66 58 51 47 42 44 47 49 50 51 51
77 77 89 89 66 53 47 44 46 50 47 49 53 55 52 56 61 64 68 76 80 79 76 73 72 71 73 77 78 72 67 63 57 46 40 42 46 49 52 55 57 57 58 59
84 77 93 81 74 66 65 62 56 54 58 56 50 55 57 61 63 67 76 78 77 75 76 72 73 75 78 75 69 58 51 42 40 43 47 51 53 56 59 62 65 67 67 66
74 60 69 95 81 87 83 74 75 70 62 63 60 58 60 66 73 78 79 80 79 79 78 76 76 75 73 56 48 42 42 43 47 51 53 56 58 61 67 71 73 76 76 75

GFSNW_prec_cthk_243.txt.gz
RH
15 15 16 17 19 19 18 18 20 23 24 26 31 40 45 50 52 50 51 51 52 54 54 55 53 52 52 52 52 53 56 57 62 52 49 51 52 53 55 69 68 79 79 63
15 15 16 18 19 20 20 20 22 24 25 34 36 42 45 53 56 55 56 58 59 58 59 61 58 57 56 56 55 56 58 60 65 55 52 53 53 50 51 58 69 73 80 64
16 16 17 19 19 21 23 22 26 27 29 34 36 39 48 55 59 58 59 62 62 61 62 61 61 61 60 58 59 62 63 65 65 64 57 58 57 48 48 53 68 72 59 64
18 18 18 18 20 22 24 24 29 31 35 38 40 45 49 55 61 64 64 65 68 68 69 66 66 63 64 65 67 67 67 68 69 62 60 57 48 46 50 56 55 65 54 63
19 18 18 19 21 23 25 26 29 33 36 39 43 49 57 60 62 69 70 71 72 72 71 74 74 70 70 70 66 68 69 71 66 61 52 47 48 46 50 48 53 55 58 59
28 22 20 22 24 27 28 28 32 36 42 42 49 56 59 64 66 70 73 74 74 73 74 72 73 75 75 72 71 70 69 69 66 64 51 52 48 44 45 50 55 60 69 62
37 35 28 27 29 31 32 32 37 41 47 50 55 61 64 68 72 77 79 77 78 78 77 76 76 77 76 74 74 73 68 66 65 67 59 59 43 45 48 52 56 61 63 67
47 44 40 43 42 40 37 38 42 47 54 59 61 66 70 74 78 83 83 82 82 81 79 82 79 74 65 65 65 63 66 66 66 68 70 54 48 47 47 53 55 59 64 63
55 53 52 51 48 49 50 51 56 61 62 62 65 71 74 80 85 87 88 89 88 85 83 81 85 78 70 73 68 68 64 61 63 72 78 73 49 47 53 55 62 62 63 72
60 61 59 59 60 56 58 56 65 69 68 69 74 77 80 83 89 90 89 90 90 89 86 84 81 81 75 77 77 72 68 68 70 70 76 61 52 56 57 69 67 69 73 72
68 69 67 67 70 69 67 66 70 75 75 77 79 80 83 87 91 93 93 95 92 91 91 88 84 81 78 74 69 65 65 73 75 74 76 71 54 58 63 68 74 73 71 70
74 73 69 69 72 77 75 73 78 81 82 78 81 85 89 91 94 96 95 95 92 91 91 88 83 82 79 77 78 65 69 63 67 65 61 57 62 64 74 74 70 67 66 70
79 76 73 73 73 75 78 78 81 85 86 88 87 90 92 92 93 95 96 98 96 93 91 87 89 88 84 84 75 69 65 65 64 64 58 62 64 64 65 66 64 68 70 72
88 85 85 84 83 84 84 86 88 91 90 91 89 91 91 93 95 96 98 98 97 95 92 93 90 88 82 79 74 72 66 61 62 62 60 63 61 61 62 66 70 70 73 79
86 89 90 92 91 92 91 90 90 90 94 92 92 92 92 92 94 96 97 98 93 91 90 89 91 90 85 79 79 75 61 60 62 64 59 58 58 60 65 71 71 74 81 80
81 82 90 95 96 97 94 94 95 96 97 96 93 89 84 86 90 92 92 95 91 91 90 89 88 87 82 82 74 59 57 60 60 59 58 56 60 66 71 75 79 80 78 68
70 74 79 89 98 98 99 97 97 98 98 96 93 84 83 88 89 93 90 91 93 93 89 86 82 78 80 79 68 57 57 57 55 53 56 61 67 73 77 80 80 73 70 69
84 70 70 82 88 96 98 98 93 96 98 97 95 89 84 86 90 91 91 92 88 84 82 82 80 78 77 68 57 56 55 54 56 60 66 71 74 76 78 75 73 71 66 58
82 87 84 78 83 94 96 93 95 92 92 95 92 88 85 84 81 83 85 82 81 82 84 79 73 69 65 57 56 55 59 61 64 70 75 75 76 76 74 72 68 62 58 53
75 78 86 93 92 88 94 93 97 96 94 90 82 80 84 74 76 87 86 87 89 85 74 73 72 65 57 57 62 64 65 69 73 75 76 75 73 73 68 65 62 58 51 44
82 87 83 85 90 95 98 98 95 92 88 87 86 85 87 90 94 94 92 88 85 82 74 78 73 65 59 62 63 67 73 76 74 70 71 71 71 70 64 60 54 47 42 38
69 77 87 87 89 91 94 94 94 89 87 82 82 85 91 92 91 92 92 88 85 83 75 76 68 53 61 65 69 71 71 68 69 72 75 73 68 62 55 47 41 38 42 46
83 75 82 82 91 96 89 83 84 76 68 67 73 79 83 86 84 85 84 84 79 73 74 65 53 64 66 71 70 66 68 73 75 74 69 63 59 49 40 38 43 47 51 53
72 77 86 93 86 69 63 61 59 58 61 64 65 67 64 69 74 76 75 75 73 75 69 61 68 72 76 72 68 68 74 76 70 66 58 47 38 41 46 48 50 55 57 58
88 84 81 84 87 80 71 66 63 60 58 57 58 61 62 68 72 73 76 78 74 65 69 71 74 76 73 71 71 71 72 69 57 47 39 41 44 49 52 55 58 61 63 66
88 93 86 76 72 77 80 78 76 69 64 69 63 64 66 69 72 72 68 67 61 69 76 78 77 76 76 75 72 73 60 48 41 41 44 46 51 55 56 59 64 66 67 70
85 84 67 65 69 76 83 79 81 81 80 80 79 74 73 74 74 66 64 69 77 79 80 80 79 77 73 72 63 50 45 40 43 45 48 53 55 56 60 65 67 68 72 77